Wind_Speed
47 49 39 36 35 34 35 34 26 17 9 8 6 7 9 13 21 31 41 19 44 40 51 53 51 52 53 52 50 48 46 44 42 40 38 36 33 32 28 28 25 25 25 23 24 24 24
48 49 44 35 35 28 30 30 26 18 13 13 12 8 9 20 28 30 28 27 37 40 48 50 49 49 49 49 49 46 44 42 40 38 36 34 33 31 28 27 26 26 25 25 24 25 25
49 50 48 39 35 29 30 30 26 26 19 23 22 18 17 21 29 26 24 28 32 42 44 49 48 46 45 44 43 42 41 39 37 35 35 32 31 28 27 26 25 25 26 25 25 24 25
52 51 51 42 35 35 32 33 32 32 30 28 20 18 25 33 30 30 31 35 35 40 43 47 45 41 40 40 39 37 35 32 31 31 31 29 29 27 26 24 24 24 26 25 24 25 27
52 51 53 45 37 38 43 36 36 34 32 33 41 40 33 33 33 37 36 36 35 38 41 42 42 38 36 36 35 33 32 30 28 28 27 27 27 25 24 23 23 23 24 24 26 30 32
50 51 53 47 37 35 34 37 35 35 43 38 42 41 40 39 39 38 38 38 37 38 39 38 39 37 35 33 32 30 27 26 25 25 24 24 24 23 23 22 21 23 26 29 32 33 36
48 49 49 51 41 41 41 39 35 34 36 35 38 38 37 34 35 35 37 38 37 37 38 37 38 36 34 31 29 27 25 23 22 22 23 22 23 20 20 23 27 30 34 33 38 35 35
44 46 48 47 45 40 40 41 35 33 32 32 30 32 32 33 34 34 34 31 33 35 34 34 34 34 32 30 27 25 24 23 22 22 22 22 22 21 22 26 27 28 31 33 33 36 35
40 42 44 45 44 40 35 36 35 30 29 28 28 27 27 28 27 28 30 29 29 28 29 30 30 31 29 28 26 24 23 22 22 22 22 24 24 25 26 27 28 32 31 31 32 32 34
39 38 40 40 40 38 35 29 28 26 24 23 21 22 22 23 23 23 23 22 22 23 24 24 24 26 26 25 23 22 22 22 22 21 21 22 22 22 23 25 28 29 28 30 32 33 32
39 39 36 37 37 36 33 31 27 22 20 20 18 18 19 20 20 20 19 18 18 19 20 19 19 19 18 18 18 17 18 17 16 16 18 18 19 19 22 24 26 28 29 32 31 28 29
37 37 37 35 33 33 32 31 28 25 18 15 14 14 16 17 18 18 17 15 15 15 12 15 14 13 12 13 13 13 13 15 15 15 17 17 18 20 22 24 27 29 28 27 26 23 15
31 34 35 34 34 30 30 29 27 24 22 19 13 10 10 11 14 14 16 16 13 12 12 12 12 11 11 11 13 13 13 14 14 16 17 19 20 22 24 24 23 23 20 14 13 13 15
27 30 32 33 34 32 29 26 25 22 22 18 16 14 10 5 6 9 11 12 11 12 11 12 12 12 12 13 13 14 13 14 17 19 21 20 19 19 19 21 19 13 13 14 13 13 13
24 25 27 28 30 30 30 28 23 21 20 17 17 13 11 10 6 3 5 8 9 9 9 10 11 11 11 12 12 14 15 17 17 17 16 16 17 19 17 14 14 15 16 14 13 11 14
20 22 23 25 25 26 27 26 25 21 18 16 14 13 12 9 6 4 3 4 5 7 10 10 10 10 12 13 13 13 13 13 13 14 15 14 13 12 13 14 15 14 13 11 13 14 13
19 20 22 22 22 23 23 23 23 22 19 15 11 10 8 7 7 4 2 3 4 5 7 8 8 8 9 9 10 11 11 12 11 9 9 11 12 13 11 12 12 12 13 15 15 16 17
19 20 22 23 23 22 21 21 20 21 19 16 13 10 6 5 3 3 3 2 4 5 6 7 8 8 8 8 9 9 10 9 10 11 11 10 11 13 13 14 14 16 16 18 19 19 21
21 23 22 23 24 25 24 23 20 19 17 16 14 12 9 7 4 2 1 1 2 4 5 7 8 8 8 9 9 9 10 10 10 12 12 13 13 14 15 17 18 19 21 22 23 23 22
24 24 26 27 27 27 27 26 27 22 19 14 16 14 13 12 11 10 8 6 6 6 7 8 9 10 10 11 11 11 13 14 15 16 17 18 18 19 20 21 23 24 25 27 29 27 29
28 29 29 29 30 29 29 25 27 23 21 16 14 15 16 16 16 16 16 15 14 14 13 14 14 15 15 16 16 17 18 19 19 21 22 23 23 25 25 28 29 28 28 32 33 33 36
33 34 33 31 32 29 28 23 23 19 20 14 15 13 14 18 19 19 21 21 22 22 21 21 22 22 23 23 24 23 24 24 25 27 28 29 29 30 28 34 35 33 33 35 37 38 39
34 36 30 29 30 29 20 20 20 16 14 15 14 13 12 14 17 21 23 24 25 28 28 28 29 29 30 30 30 30 31 32 31 33 34 35 36 37 34 37 37 37 39 41 41 41 40
38 35 31 26 25 23 18 16 15 16 15 16 17 15 16 17 16 18 20 23 26 26 28 31 33 34 35 36 37 38 38 38 39 39 39 40 41 43 41 42 41 37 35 38 38 38 40
35 34 32 29 21 20 23 17 14 15 19 21 23 20 16 15 17 16 16 17 19 23 25 27 28 30 32 33 33 34 36 38 38 37 38 39 40 41 40 39 41 32 35 39 42 40 39
37 36 31 31 29 24 22 25 25 24 23 22 24 26 24 20 18 17 17 17 17 18 21 24 27 28 29 30 30 30 31 33 33 32 33 35 36 37 39 42 43 35 38 40 44 44 43
38 40 38 36 34 33 29 26 26 28 29 30 29 27 29 29 29 26 24 23 24 23 22 23 25 27 30 30 31 31 30 32 32 32 32 35 40 41 41 46 43 38 41 44 46 50 50
39 40 42 45 44 40 39 36 35 36 37 34 34 35 33 31 33 35 36 33 31 33 33 31 31 32 34 33 34 34 35 33 34 34 32 35 38 40 43 45 47 46 47 48 50 52 55
44 43 44 45 49 52 49 46 47 47 44 46 43 40 37 38 38 36 39 39 39 39 40 40 40 40 41 41 41 44 45 43 41 43 40 44 44 46 45 47 48 51 55 58 60 62 62
Wind_Direction
18 21 24 35 34 47 44 53 52 58 86 118 148 152 165 157 147 162 170 126 165 172 173 174 180 182 184 187 187 188 191 191 194 199 201 205 207 212 211 219 227 235 238 245 254 261 268
23 24 25 32 37 45 53 49 50 52 69 62 114 149 144 139 140 148 157 150 160 167 168 169 176 181 184 187 187 188 191 191 193 197 201 206 209 212 216 222 228 238 245 249 255 264 274
25 27 28 31 40 48 50 44 48 42 62 69 87 125 116 124 123 131 129 148 157 159 162 165 170 177 183 187 187 189 190 191 193 197 202 207 213 219 223 228 233 241 249 256 264 275 283
29 29 31 34 40 46 46 55 46 75 75 86 77 121 127 114 122 125 134 140 151 152 157 156 162 171 180 183 185 187 188 192 195 199 203 209 215 221 228 236 241 249 256 264 271 275 281
31 31 34 36 45 49 47 55 54 60 75 81 84 94 123 120 122 124 128 134 140 146 148 149 154 165 173 181 185 183 190 191 198 205 207 213 219 226 234 244 252 259 266 268 271 281 282
33 33 35 41 50 60 49 58 64 67 87 88 96 105 109 114 117 122 126 129 133 139 141 145 152 160 169 176 183 186 188 194 203 210 214 220 227 232 241 248 257 267 275 280 281 281 281
34 37 38 41 54 58 60 60 72 77 83 89 98 103 110 115 120 124 125 129 135 137 141 148 153 159 163 172 180 188 193 199 207 216 222 229 235 236 247 260 271 277 279 280 287 283 277
37 37 41 43 45 53 54 59 71 78 80 89 91 103 107 112 117 122 127 131 136 138 144 151 151 152 157 165 174 184 194 203 211 221 228 235 238 248 260 269 270 279 280 277 273 277 282
38 39 40 45 47 47 52 53 59 69 68 76 87 92 96 106 113 120 127 129 134 140 148 150 149 151 159 167 176 185 195 207 216 222 230 240 249 257 261 265 268 275 276 279 282 286 291
38 40 41 42 48 50 49 49 50 57 62 69 85 96 100 110 114 114 120 125 135 138 147 147 151 156 163 169 177 186 196 208 218 228 239 246 249 254 258 266 270 275 279 282 282 285 287
35 38 42 42 42 49 51 50 46 55 63 69 81 98 109 111 111 114 116 124 134 135 142 146 145 155 163 168 177 187 197 207 217 229 237 245 255 265 270 273 274 276 278 278 280 282 284
37 33 35 40 41 43 47 51 52 52 53 64 70 89 105 108 117 122 126 127 134 139 139 140 145 146 156 166 180 193 202 212 223 235 245 252 260 264 265 268 271 273 272 275 277 276 266
37 34 32 31 37 39 40 44 50 52 54 55 53 71 92 110 121 125 129 138 129 135 148 152 160 163 173 184 194 204 213 221 230 242 250 255 259 262 264 268 271 278 279 268 263 264 276
31 33 33 30 29 31 37 36 40 47 49 49 54 56 54 62 114 132 140 148 153 138 144 159 163 176 184 194 203 214 223 230 233 238 243 247 256 260 265 267 267 255 254 259 266 276 277
16 26 27 29 28 26 23 29 31 31 38 45 45 46 58 64 66 101 167 178 182 179 171 173 180 186 196 205 214 222 228 234 240 247 255 255 257 260 258 243 246 256 263 266 270 271 281
3 11 19 20 21 20 18 15 14 23 22 26 37 40 41 47 59 75 122 173 199 203 202 201 206 215 223 227 232 238 243 249 253 256 256 249 237 235 246 255 259 260 259 261 272 279 279
351 356 1 7 11 12 11 8 7 0 3 9 8 25 32 41 49 63 117 143 163 179 197 201 211 213 222 223 233 238 241 237 229 214 217 235 244 246 247 252 255 260 264 268 271 275 281
338 340 345 349 351 355 359 358 358 351 345 342 346 343 349 16 43 63 70 118 177 195 192 198 207 212 213 209 201 194 206 216 223 238 240 241 245 256 262 264 265 269 269 272 273 277 280
323 325 328 332 337 339 340 342 339 340 330 324 314 314 305 301 289 282 197 189 187 179 181 184 186 192 200 206 210 213 222 227 237 246 254 261 265 264 263 266 268 268 270 273 275 278 283
311 313 317 323 326 331 333 332 331 322 324 309 301 291 284 279 265 260 250 235 231 235 230 224 222 222 222 225 229 234 241 245 251 255 259 261 264 265 265 266 266 268 272 275 277 280 279
307 311 313 313 319 323 325 328 328 321 316 301 296 280 278 270 266 261 255 250 245 243 241 243 247 248 247 247 248 250 252 256 259 263 265 266 267 270 273 272 270 269 271 275 280 283 281
304 309 309 311 313 316 324 326 329 326 318 305 301 285 286 273 263 261 259 258 260 254 252 253 255 255 256 257 259 262 264 264 267 269 270 271 272 273 274 275 276 277 280 278 280 281 281
300 305 305 306 310 313 323 335 332 338 330 325 313 299 284 293 271 261 263 261 261 259 260 261 262 262 261 263 263 265 266 268 268 270 272 274 275 275 274 274 276 280 282 283 284 285 285
298 305 302 303 306 307 310 329 328 332 333 335 337 323 303 299 284 274 271 261 259 265 269 265 263 263 266 268 270 271 271 271 272 272 274 276 277 279 279 281 279 282 283 281 280 279 281
290 296 297 298 295 303 301 300 303 315 323 329 324 327 327 308 311 304 292 282 273 267 268 271 272 272 273 274 276 278 279 278 279 282 283 283 283 282 283 281 282 287 285 285 284 282 284
293 285 283 284 291 292 297 296 295 297 300 305 315 321 320 308 301 302 307 307 299 288 280 277 275 275 275 275 275 276 278 280 282 281 283 283 283 283 286 284 286 295 288 284 281 284 284
284 287 279 275 282 286 288 288 292 294 296 299 299 298 303 303 297 293 292 292 290 289 290 288 283 282 279 279 280 281 280 283 283 283 283 285 286 288 288 288 290 290 287 285 285 285 284
273 277 280 277 277 278 280 282 285 287 288 288 290 293 290 287 289 287 286 287 288 288 286 282 282 285 283 284 283 283 281 281 282 283 285 283 284 287 287 288 290 292 289 288 288 286 286
270 271 273 275 280 278 276 277 281 286 288 289 288 285 284 282 279 276 279 282 281 280 279 279 277 274 272 275 278 279 280 278 278 279 279 280 280 283 284 286 289 290 290 290 289 288 289
Height
5704 5693 5682 5674 5665 5659 5653 5647 5642 5639 5636 5637 5637 5638 5639 5640 5643 5649 5656 5662 5669 5680 5690 5703 5719 5733 5744 5756 5767 5777 5786 5794 5802 5810 5817 5823 5829 5834 5838 5842 5846 5849 5850 5852 5853 5854 5856
5708 5698 5686 5678 5671 5664 5658 5655 5649 5645 5642 5640 5641 5640 5643 5644 5650 5658 5662 5666 5677 5685 5695 5708 5722 5736 5747 5758 5767 5777 5786 5794 5801 5808 5815 5821 5826 5831 5835 5839 5842 5845 5847 5848 5849 5850 5851
5713 5702 5691 5682 5676 5671 5666 5661 5657 5652 5648 5647 5647 5647 5649 5653 5657 5663 5670 5676 5685 5693 5703 5714 5726 5739 5749 5761 5770 5779 5787 5794 5800 5807 5813 5819 5824 5830 5833 5836 5838 5841 5843 5844 5845 5846 5847
5719 5709 5698 5689 5683 5679 5674 5668 5663 5660 5656 5654 5653 5653 5657 5662 5666 5671 5677 5685 5694 5701 5710 5717 5729 5742 5753 5762 5771 5780 5787 5795 5801 5807 5812 5818 5822 5826 5829 5833 5835 5837 5839 5841 5841 5841 5841
5725 5716 5706 5697 5692 5687 5682 5678 5673 5670 5666 5664 5663 5662 5668 5673 5678 5682 5688 5695 5702 5710 5717 5724 5735 5746 5756 5765 5774 5781 5788 5794 5801 5807 5811 5816 5820 5823 5827 5830 5832 5833 5834 5836 5837 5837 5836
5733 5724 5715 5707 5701 5696 5693 5688 5686 5683 5681 5681 5680 5680 5683 5687 5690 5695 5700 5705 5713 5718 5724 5732 5742 5753 5760 5768 5776 5783 5789 5795 5801 5806 5811 5815 5818 5821 5824 5826 5828 5829 5830 5831 5832 5833 5830
5741 5733 5725 5718 5712 5707 5703 5699 5698 5697 5695 5694 5695 5695 5696 5699 5703 5707 5711 5716 5723 5729 5732 5740 5747 5755 5762 5770 5778 5784 5790 5796 5801 5806 5810 5813 5817 5818 5821 5823 5824 5824 5824 5824 5823 5824 5824
5750 5742 5735 5728 5723 5718 5714 5711 5709 5710 5708 5708 5708 5708 5708 5710 5713 5716 5720 5726 5730 5736 5741 5747 5752 5758 5764 5771 5779 5784 5790 5796 5800 5804 5807 5811 5813 5815 5816 5818 5818 5817 5817 5818 5817 5817 5816
5757 5751 5745 5738 5733 5730 5726 5724 5721 5719 5719 5719 5718 5719 5720 5721 5723 5726 5729 5733 5736 5742 5748 5753 5756 5760 5767 5774 5779 5784 5789 5793 5798 5801 5804 5807 5810 5810 5811 5812 5813 5813 5812 5813 5813 5812 5810
5764 5759 5754 5748 5743 5739 5736 5733 5731 5729 5728 5728 5729 5729 5729 5731 5735 5735 5738 5741 5745 5748 5753 5757 5760 5764 5769 5773 5779 5783 5788 5793 5796 5798 5801 5804 5805 5806 5807 5808 5808 5809 5809 5808 5808 5806 5805
5771 5766 5761 5757 5752 5748 5744 5741 5739 5738 5737 5736 5736 5737 5738 5739 5741 5743 5746 5748 5751 5754 5758 5762 5765 5768 5772 5776 5780 5783 5787 5790 5793 5796 5800 5802 5802 5803 5803 5804 5805 5805 5804 5803 5802 5800 5799
5778 5773 5768 5763 5760 5756 5752 5749 5746 5744 5744 5744 5743 5743 5744 5746 5747 5750 5751 5754 5757 5761 5762 5764 5767 5770 5774 5777 5781 5784 5787 5790 5793 5795 5796 5798 5799 5800 5801 5801 5800 5800 5799 5797 5795 5795 5795
5784 5780 5776 5771 5766 5763 5760 5757 5754 5752 5750 5749 5749 5749 5749 5750 5751 5753 5755 5758 5761 5762 5765 5767 5769 5772 5774 5778 5781 5783 5786 5788 5790 5792 5793 5794 5795 5795 5796 5795 5795 5794 5792 5792 5792 5792 5791
5788 5784 5781 5777 5774 5769 5766 5763 5761 5758 5756 5755 5754 5753 5753 5753 5754 5756 5757 5760 5762 5763 5765 5767 5770 5772 5775 5778 5780 5782 5783 5785 5786 5788 5789 5790 5791 5790 5790 5790 5790 5790 5790 5790 5788 5788 5787
5791 5788 5785 5782 5778 5775 5772 5769 5766 5763 5761 5759 5758 5758 5757 5756 5757 5758 5760 5760 5761 5763 5764 5766 5769 5771 5772 5774 5777 5778 5780 5782 5783 5784 5785 5785 5786 5786 5786 5787 5788 5787 5787 5786 5784 5784 5784
5791 5789 5787 5785 5782 5779 5776 5773 5771 5768 5766 5764 5762 5761 5760 5759 5759 5759 5760 5760 5761 5762 5764 5765 5767 5769 5771 5773 5775 5776 5777 5778 5778 5779 5780 5781 5782 5783 5783 5784 5784 5783 5783 5782 5781 5781 5780
5790 5788 5786 5784 5783 5781 5779 5776 5774 5771 5769 5767 5765 5764 5763 5762 5761 5761 5761 5761 5761 5762 5763 5765 5766 5768 5769 5770 5772 5773 5774 5775 5776 5777 5778 5779 5780 5781 5780 5780 5780 5779 5778 5778 5778 5777 5776
5790 5788 5785 5784 5783 5781 5779 5777 5775 5772 5771 5768 5766 5765 5764 5764 5764 5762 5762 5762 5762 5763 5763 5764 5766 5767 5768 5769 5770 5771 5772 5774 5774 5775 5776 5777 5777 5777 5777 5776 5776 5775 5774 5773 5773 5774 5771
5788 5787 5785 5783 5781 5779 5778 5776 5774 5772 5770 5768 5766 5764 5764 5764 5764 5763 5763 5763 5763 5763 5764 5764 5765 5766 5767 5768 5770 5770 5771 5772 5772 5772 5773 5773 5773 5773 5773 5774 5772 5771 5770 5768 5768 5767 5767
5784 5783 5781 5780 5779 5777 5774 5772 5770 5768 5766 5765 5764 5763 5762 5761 5762 5762 5763 5762 5763 5763 5764 5764 5764 5765 5765 5766 5767 5768 5768 5768 5768 5768 5768 5768 5768 5768 5768 5767 5766 5765 5764 5762 5760 5761 5759
5780 5779 5778 5777 5775 5773 5770 5768 5765 5763 5761 5759 5759 5759 5758 5758 5759 5759 5760 5761 5761 5761 5762 5763 5763 5764 5764 5764 5764 5764 5764 5764 5765 5764 5763 5763 5763 5762 5762 5760 5759 5760 5760 5757 5755 5753 5749
5775 5773 5771 5770 5769 5767 5766 5763 5761 5759 5757 5755 5755 5755 5755 5754 5755 5755 5755 5756 5757 5758 5758 5759 5759 5760 5760 5760 5760 5760 5760 5760 5759 5758 5757 5757 5756 5756 5756 5751 5750 5752 5751 5749 5747 5745 5742
5769 5768 5765 5764 5764 5763 5760 5760 5758 5756 5755 5753 5751 5752 5751 5751 5750 5750 5751 5751 5751 5751 5753 5753 5753 5753 5753 5754 5754 5754 5754 5753 5753 5752 5750 5749 5747 5746 5748 5744 5743 5744 5741 5738 5735 5733 5730
5763 5762 5760 5758 5758 5757 5757 5755 5755 5755 5754 5753 5750 5749 5748 5747 5746 5745 5744 5744 5745 5746 5746 5746 5746 5746 5747 5746 5746 5746 5746 5744 5743 5742 5742 5741 5739 5736 5737 5733 5732 5733 5731 5727 5725 5723 5720
5755 5755 5754 5753 5751 5752 5752 5750 5749 5749 5750 5750 5749 5748 5746 5744 5743 5742 5741 5739 5739 5739 5739 5739 5739 5739 5738 5738 5737 5737 5737 5736 5734 5734 5731 5729 5727 5724 5723 5722 5720 5724 5719 5715 5711 5712 5711
5746 5747 5747 5747 5745 5744 5744 5745 5745 5745 5743 5742 5743 5743 5744 5743 5741 5740 5738 5736 5735 5734 5732 5732 5731 5729 5729 5729 5729 5729 5728 5727 5726 5725 5723 5720 5718 5717 5713 5709 5707 5712 5707 5704 5699 5699 5697
5735 5737 5738 5738 5738 5738 5737 5735 5735 5736 5736 5737 5736 5735 5735 5736 5737 5736 5734 5733 5731 5730 5729 5726 5724 5723 5721 5720 5718 5717 5717 5715 5716 5716 5715 5711 5706 5705 5703 5697 5699 5698 5693 5690 5688 5686 5681
5724 5726 5727 5728 5729 5729 5728 5727 5727 5727 5725 5725 5725 5727 5727 5725 5724 5726 5726 5725 5724 5723 5722 5721 5719 5715 5713 5712 5711 5709 5707 5707 5705 5704 5704 5701 5697 5694 5690 5687 5684 5683 5679 5677 5673 5668 5664
5712 5712 5714 5714 5717 5719 5718 5718 5717 5716 5718 5716 5715 5713 5713 5715 5714 5712 5712 5713 5712 5711 5710 5709 5709 5707 5703 5702 5701 5697 5696 5695 5695 5692 5693 5689 5687 5683 5682 5677 5673 5668 5664 5659 5655 5652 5650